Location: México DF
(19.4326°N, 99.1332°W)
Time: 11:55:07
(UTC+00:00)

ISS - Pass Details

Date: 09 July 2025
Orbit: 415 x 418 km, 51.6° (Epoch: 17 July)

Event Time Altitude Azimuth Distance (km) Brightness Sun altitude
Rises 11:00:08 0° 330° (NNW) 2,347 0.1 -14.4°
Reaches altitude 10° 11:02:18 10° 338° (NNW) 1,484 -0.9 -13.9°
Maximum altitude 11:05:28 41° 49° (NE) 617 -2.3 -13.3°
Drops below altitude 10° 11:08:38 10° 121° (ESE) 1,483 -0.6 -12.7°
Sets 11:10:47 0° 129° (SE) 2,344 0.3 -12.2°
